Погода в Побугском

Украина / Кировоградская область     48°10′01″N   30°35′36″E
темп.,
°C
ветер,
м/с
пор.,
м/с
влажн.,
%
обл.,
%
осадки,
мм/ч
давл.,
гПа
погр.,
м
25 февраля, чт
чт2523:00+1юз47100100 0.0 1034190
02:00+1юз33100100 0.0 103490
05:00+2з23100100 0.0 103238
08:00+2зсз33100100 0.0 103243
11:00+3з34100100 0.0 103236
14:00+3з34100100 0.0 103158
17:00+3з45100100 0.1 1030100
20:00+3зсз47100100 0.1 1030103
26 февраля, пт
пт2623:00+2зсз23100100 0.0 103025
02:00+2з23100100 0.0 102930
05:00+2з23100100 0.0 102830
08:00+2зюз3410099 0.0 102760
11:00+2зюз35100100 0.0 1026123
14:00+4зюз46100100 0.0 1023145
17:00+4з3410097 0.0 102281
20:00+3зсз349271 0.0 102253
27 февраля, сб
сб2723:00+3зсз34940 0.0 102051
02:00+3зсз339619 0.0 102040
05:00+3ссз41199100 1.3 1018333
08:00+3зсз51193100 1.7 1018334
11:00+5сз6108399 0.1 10181110
14:00+5сз6978100 0.1 10181007
17:00+3зсз5118594 0.0 1017395
20:00+2сз5119194 0.1 1018545
28 февраля, вс
вс2823:00+1ссз5109481 0.0 1019469
02:00+1ссз6119590 0.1 1021540
05:00+1ссз61096100 0.2 1021559
08:000ссз7119599 0.3 1024677
11:00+2ссз687785 0.1 1024966
14:00+3ссз687792 0.2 1025945
17:00+2ссз587896 0.1 1026679
20:00+1ссз388998 0.3 1027562
1 марта, пн
пн123:000ссз3789100 0.0 1028239
02:00−1ссз3892100 0.1 1029333
05:00−2ссз369593 0.0 1029162
08:00−1ссз369088 0.0 1030375
11:00+3с346557 0.0 10321017
14:00+3с456579 0.1 10321092
17:00+2с357299 0.0 1033177
20:000ссз357496 0.0 1035118